When you browse on this site, cookies collect data to enhance your experience and personalize the content and advertising you see.
Visit our Privacy Policy to learn more. By continuing to use the site, you agree to this use of cookies and data.
  • In Hungary
  • List of Countries
  • For 7 days
  • Water Temperature
  • Weather Map
  • News
  • Weather Widgets
  • user-avatar
    Login

    Hourly Weather Yaryshiv

    Today, 5 April, Sunday

    Time Temperature Precipitation Wind Pressure Humidity
    00:00 +4°C° 0 mm 3 mps 753 mmHg 58%
    01:00 +4°C° 0 mm 3 mps 753 mmHg 60%
    02:00 +4°C° 0 mm 2 mps 753 mmHg 63%
    03:00 +4°C° 0 mm 2 mps 753 mmHg 65%
    04:00 +4°C° 0 mm 2 mps 754 mmHg 66%
    05:00 +3°C° 0 mm 2 mps 754 mmHg 67%
    06:00 +3°C° 0 mm 3 mps 754 mmHg 61%
    07:00 +4°C° 0 mm 3 mps 755 mmHg 55%
    08:00 +6°C° 0 mm 4 mps 756 mmHg 47%
    09:00 +7°C° 0 mm 4 mps 756 mmHg 41%
    10:00 +8°C° 0 mm 4 mps 756 mmHg 35%
    11:00 +10°C° 0 mm 4 mps 756 mmHg 29%
    12:00 +11°C° 0 mm 4 mps 756 mmHg 28%
    13:00 +12°C° 0 mm 4 mps 756 mmHg 27%
    14:00 +12°C° 0 mm 4 mps 756 mmHg 26%
    15:00 +12°C° 0 mm 4 mps 756 mmHg 28%
    16:00 +12°C° 0 mm 5 mps 756 mmHg 31%
    17:00 +10°C° 0 mm 5 mps 756 mmHg 33%
    18:00 +10°C° 0 mm 4 mps 756 mmHg 38%
    19:00 +8°C° 0 mm 4 mps 756 mmHg 43%
    20:00 +7°C° 0 mm 3 mps 756 mmHg 48%
    21:00 +5°C° 0 mm 3 mps 757 mmHg 49%
    22:00 +5°C° 0 mm 3 mps 757 mmHg 50%
    23:00 +4°C° 0 mm 3 mps 758 mmHg 51%

    Tomorrow, 6 April, Monday

    Time Temperature Precipitation Wind Pressure Humidity
    00:00 +3°C° 0 mm 3 mps 758 mmHg 52%
    01:00 +4°C° 0 mm 2 mps 758 mmHg 54%
    02:00 +3°C° 0 mm 2 mps 758 mmHg 55%
    03:00 +3°C° 0 mm 2 mps 759 mmHg 56%
    04:00 +2°C° 0 mm 2 mps 759 mmHg 57%
    05:00 +2°C° 0 mm 2 mps 759 mmHg 58%
    06:00 +3°C° 0 mm 2 mps 759 mmHg 55%
    07:00 +4°C° 0 mm 2 mps 759 mmHg 52%
    08:00 +7°C° 0 mm 1 mps 760 mmHg 48%
    09:00 +7°C° 0 mm 2 mps 760 mmHg 44%
    10:00 +8°C° 0 mm 2 mps 760 mmHg 39%
    11:00 +10°C° 0 mm 2 mps 760 mmHg 34%
    12:00 +10°C° 0 mm 2 mps 760 mmHg 32%
    13:00 +12°C° 0 mm 2 mps 760 mmHg 30%
    14:00 +13°C° 0 mm 2 mps 759 mmHg 27%
    15:00 +13°C° 0 mm 2 mps 759 mmHg 27%
    16:00 +13°C° 0 mm 2 mps 759 mmHg 27%
    17:00 +13°C° 0 mm 2 mps 759 mmHg 27%
    18:00 +12°C° 0 mm 2 mps 759 mmHg 30%
    19:00 +10°C° 0 mm 2 mps 759 mmHg 33%
    20:00 +9°C° 0 mm 1 mps 759 mmHg 37%
    21:00 +9°C° 0 mm 1 mps 759 mmHg 38%
    22:00 +8°C° 0 mm 1 mps 759 mmHg 39%
    23:00 +8°C° 0 mm 1 mps 759 mmHg 40%

    Day after tomorrow, 7 April, Tuesday

    Time Temperature Precipitation Wind Pressure Humidity
    00:00 +7°C° 0 mm 1 mps 759 mmHg 41%
    01:00 +7°C° 0 mm 1 mps 759 mmHg 42%
    02:00 +7°C° 0 mm 1 mps 758 mmHg 43%
    03:00 +6°C° 0 mm 1 mps 759 mmHg 44%
    04:00 +6°C° 0 mm 1 mps 759 mmHg 46%
    05:00 +5°C° 0 mm 1 mps 759 mmHg 47%
    06:00 +7°C° 0 mm 1 mps 759 mmHg 44%
    07:00 +8°C° 0 mm 1 mps 759 mmHg 42%
    08:00 +9°C° 0 mm 1 mps 759 mmHg 40%
    09:00 +10°C° 0 mm 2 mps 759 mmHg 36%
    10:00 +12°C° 0 mm 2 mps 759 mmHg 32%
    11:00 +14°C° 0 mm 2 mps 759 mmHg 28%
    12:00 +14°C° 0 mm 2 mps 759 mmHg 27%
    13:00 +15°C° 0 mm 2 mps 759 mmHg 26%
    14:00 +16°C° 0 mm 2 mps 758 mmHg 25%
    15:00 +16°C° 0 mm 2 mps 758 mmHg 25%
    16:00 +16°C° 0 mm 2 mps 757 mmHg 26%
    17:00 +16°C° 0 mm 2 mps 757 mmHg 26%
    18:00 +14°C° 0 mm 1 mps 757 mmHg 30%
    19:00 +13°C° 0 mm 1 mps 757 mmHg 33%
    20:00 +11°C° 0 mm 1 mps 757 mmHg 37%
    21:00 +11°C° 0 mm 1 mps 757 mmHg 38%
    22:00 +10°C° 0 mm 1 mps 757 mmHg 40%
    23:00 +10°C° 0 mm 1 mps 757 mmHg 42%

    8 April, Wednesday

    Time Temperature Precipitation Wind Pressure Humidity
    00:00 +9°C° 0 mm 1 mps 757 mmHg 43%
    01:00 +8°C° 0 mm 0 mps 756 mmHg 44%
    02:00 +7°C° 0 mm 0 mps 756 mmHg 45%
    03:00 +7°C° 0 mm 0 mps 756 mmHg 47%
    04:00 +6°C° 0 mm 0 mps 756 mmHg 48%
    05:00 +6°C° 0 mm 0 mps 756 mmHg 49%
    06:00 +8°C° 0 mm 1 mps 756 mmHg 46%
    07:00 +10°C° 0 mm 1 mps 755 mmHg 44%
    08:00 +11°C° 0 mm 1 mps 755 mmHg 42%
    09:00 +13°C° 0 mm 1 mps 755 mmHg 38%
    10:00 +14°C° 0 mm 2 mps 755 mmHg 34%
    11:00 +16°C° 0 mm 2 mps 755 mmHg 31%
    12:00 +16°C° 0 mm 2 mps 754 mmHg 29%
    13:00 +17°C° 0 mm 2 mps 753 mmHg 28%
    14:00 +18°C° 0 mm 2 mps 753 mmHg 26%
    15:00 +18°C° 0 mm 2 mps 752 mmHg 27%
    16:00 +18°C° 0 mm 2 mps 752 mmHg 29%
    17:00 +18°C° 0 mm 2 mps 752 mmHg 30%
    18:00 +17°C° 0 mm 2 mps 752 mmHg 35%
    19:00 +15°C° 0 mm 2 mps 751 mmHg 40%
    20:00 +14°C° 0 mm 2 mps 751 mmHg 45%
    21:00 +13°C° 0 mm 2 mps 751 mmHg 48%
    22:00 +12°C° 0 mm 2 mps 751 mmHg 52%
    23:00 +10°C° 0 mm 2 mps 751 mmHg 56%

    9 April, Thursday

    Time Temperature Precipitation Wind Pressure Humidity
    00:00 +11°C° 0 mm 1 mps 751 mmHg 60%
    01:00 +10°C° 0 mm 1 mps 751 mmHg 65%
    02:00 +10°C° 0 mm 1 mps 751 mmHg 69%
    03:00 +10°C° 0 mm 1 mps 751 mmHg 70%
    04:00 +9°C° 0 mm 1 mps 750 mmHg 71%
    05:00 +9°C° 0 mm 1 mps 750 mmHg 72%
    06:00 +10°C° 0 mm 1 mps 750 mmHg 67%
    07:00 +11°C° 0 mm 1 mps 750 mmHg 62%
    08:00 +13°C° 0 mm 1 mps 750 mmHg 57%
    09:00 +14°C° 0 mm 1 mps 750 mmHg 53%
    10:00 +16°C° 0 mm 1 mps 749 mmHg 49%
    11:00 +18°C° 0 mm 1 mps 749 mmHg 45%
    12:00 +19°C° 0 mm 1 mps 749 mmHg 42%
    13:00 +19°C° 0 mm 2 mps 748 mmHg 40%
    14:00 +19°C° 0 mm 2 mps 748 mmHg 37%
    15:00 +19°C° 0 mm 2 mps 747 mmHg 37%
    16:00 +20°C° 0 mm 2 mps 747 mmHg 37%
    17:00 +20°C° 0 mm 2 mps 746 mmHg 37%
    18:00 +18°C° 0 mm 2 mps 746 mmHg 40%
    19:00 +17°C° 0 mm 2 mps 746 mmHg 43%
    20:00 +15°C° 0 mm 1 mps 746 mmHg 45%
    21:00 +15°C° 0 mm 1 mps 746 mmHg 46%
    22:00 +14°C° 0 mm 2 mps 746 mmHg 47%
    23:00 +13°C° 0 mm 2 mps 746 mmHg 48%

    10 April, Friday

    Time Temperature Precipitation Wind Pressure Humidity
    00:00 +13°C° 0 mm 2 mps 745 mmHg 51%
    01:00 +12°C° 0 mm 2 mps 745 mmHg 54%
    02:00 +10°C° 0 mm 2 mps 745 mmHg 57%
    03:00 +10°C° 0 mm 3 mps 745 mmHg 59%
    04:00 +10°C° 0 mm 3 mps 745 mmHg 61%
    05:00 +9°C° 0 mm 3 mps 744 mmHg 62%
    06:00 +10°C° 0 mm 4 mps 745 mmHg 61%
    07:00 +10°C° 0 mm 5 mps 745 mmHg 59%
    08:00 +13°C° 0 mm 6 mps 745 mmHg 58%
    09:00 +13°C° 0 mm 6 mps 745 mmHg 57%
    10:00 +14°C° 0 mm 7 mps 745 mmHg 56%
    11:00 +15°C° 0 mm 7 mps 745 mmHg 55%
    12:00 +15°C° 0 mm 7 mps 745 mmHg 53%
    13:00 +14°C° 0 mm 7 mps 745 mmHg 52%
    14:00 +13°C° 0 mm 8 mps 745 mmHg 51%
    15:00 +14°C° 0 mm 7 mps 746 mmHg 49%
    16:00 +12°C° 0 mm 7 mps 746 mmHg 48%
    17:00 +12°C° 0 mm 7 mps 746 mmHg 47%
    18:00 +11°C° 0 mm 6 mps 746 mmHg 50%
    19:00 +10°C° 0 mm 5 mps 747 mmHg 53%
    20:00 +8°C° 0 mm 4 mps 747 mmHg 56%
    21:00 +8°C° 0 mm 4 mps 748 mmHg 56%
    22:00 +8°C° 0 mm 3 mps 748 mmHg 56%
    23:00 +7°C° 0 mm 3 mps 748 mmHg 55%
    Show more